Date String (YYYY-MM-DD hh:mm:ss) UTC,Instrument flags,absolute air pressure of the measurement (hPa),sample flow rate (lpm),inlet stack bypass flow (lpm),air temperature of the measurement (°C),ambient temperature measured by the external sensor (°C),aerosol sample conditioner tube jacket temperature (°C),OPC LED temperature (°C),internal box temperature (°C),relative humidity of the measurement (%),span deviation,mass concentration of particles derived from Lorenz-Mie calculation of OPC scattering (μg/m³),mass concentration of particles derived from Lorenz-Mie calculation of OPC scattering (μg/m³),mass concentration of particles derived from Lorenz-Mie calculation of OPC scattering (μg/m³)
DateTimeUTC,F1_M11,P_M11,Q1_M11,Q2_M11,T1_M11,T2_M11,T3_M11,T4_M11,T5_M11,U1_M11,ZSPAN_M11,X0_M11,X2_M11,X1_M11
2024-03-22 07:00:00,SystemResetWarning,0829.6,5.00,000.00,023.4,022.4,000.0,032.1,025.2,17.5,0000.0,0019.55,0004.25,0002.68
2024-03-22 07:01:00,SystemResetWarning,0829.6,5.00,000.00,023.4,022.4,000.0,032.1,025.2,17.5,0000.0,0019.08,0004.26,0002.70
2024-03-22 07:02:00,SystemResetWarning,0829.6,4.99,000.00,023.4,022.4,000.0,032.1,025.2,17.5,0000.0,0019.31,0004.26,0002.69
2024-03-22 07:03:00,SystemResetWarning,0829.6,4.99,000.00,023.4,022.4,000.0,032.1,025.2,17.5,0000.0,0018.58,0004.23,0002.70
2024-03-22 07:04:00,SystemResetWarning,0829.7,5.00,000.00,023.4,022.3,000.0,032.0,025.2,17.5,0000.0,0017.85,0004.22,0002.69
2024-03-22 07:05:00,SystemResetWarning,0829.7,5.00,000.00,023.4,022.3,000.0,032.0,025.2,17.6,0000.0,0015.67,0004.16,0002.68
2024-03-22 07:06:00,SystemResetWarning,0829.7,5.00,000.00,023.4,022.3,000.0,032.0,025.2,17.6,0000.0,0016.24,0004.18,0002.68
2024-03-22 07:07:00,SystemResetWarning,0829.8,5.01,000.00,023.3,022.3,000.0,032.0,025.2,17.6,0000.0,0016.27,0004.17,0002.67
2024-03-22 07:08:00,SystemResetWarning,0829.8,5.00,000.00,023.3,022.3,000.0,032.0,025.2,17.6,0000.0,0017.11,0004.15,0002.66
2024-03-22 07:09:00,SystemResetWarning,0829.8,5.00,000.00,023.3,022.4,000.0,032.0,025.2,17.6,0000.0,0017.28,0004.11,0002.66
2024-03-22 07:10:00,SystemResetWarning,0829.8,5.00,000.00,023.3,022.4,000.0,032.0,025.2,17.6,0000.0,0016.70,0004.18,0002.68
2024-03-22 07:11:00,SystemResetWarning,0829.8,5.00,000.00,023.3,022.4,000.0,032.0,025.2,17.6,0000.0,0016.55,0004.24,0002.69
2024-03-22 07:12:00,SystemResetWarning,0829.8,5.00,000.00,023.3,022.3,000.0,032.0,025.2,17.6,0000.0,0016.78,0004.24,0002.68
2024-03-22 07:13:00,SystemResetWarning,0829.9,5.00,000.00,023.3,022.3,000.0,032.0,025.2,17.6,0000.0,0016.04,0004.16,0002.68
2024-03-22 07:14:00,SystemResetWarning,0829.9,5.00,000.00,023.3,022.3,000.0,032.0,025.2,17.7,0000.0,0015.53,0004.12,0002.67
2024-03-22 07:15:00,SystemResetWarning,0829.9,5.00,000.00,023.3,022.4,000.0,032.0,025.2,17.7,0000.0,0015.82,0004.12,0002.68
2024-03-22 07:16:00,SystemResetWarning,0829.9,4.99,000.00,023.3,022.4,000.0,032.0,025.2,17.7,0000.0,0017.10,0004.10,0002.67
2024-03-22 07:17:00,SystemResetWarning,0829.9,5.00,000.00,023.3,022.4,000.0,032.0,025.2,17.6,0000.0,0016.48,0004.08,0002.67
2024-03-22 07:18:00,SystemResetWarning,0830.0,5.00,000.00,023.3,022.4,000.0,032.0,025.2,17.6,0000.0,0016.78,0004.03,0002.66
2024-03-22 07:19:00,SystemResetWarning,0830.0,5.00,000.00,023.3,022.3,000.0,032.0,025.1,17.6,0000.0,0015.69,0004.02,0002.63
2024-03-22 07:20:00,SystemResetWarning,0830.0,5.00,000.00,023.3,022.3,000.0,031.9,025.1,17.6,0000.0,0015.71,0004.03,0002.61
2024-03-22 07:21:00,SystemResetWarning,0830.0,5.00,000.00,023.3,022.3,000.0,031.9,025.1,17.6,0000.0,0015.03,0003.93,0002.58
2024-03-22 07:22:00,SystemResetWarning,0830.1,5.00,000.00,023.3,022.3,000.0,031.9,025.1,17.6,0000.0,0014.70,0003.87,0002.55
2024-03-22 07:23:00,SystemResetWarning,0830.1,5.00,000.00,023.3,022.3,000.0,031.9,025.1,17.6,0000.0,0014.71,0003.84,0002.54
2024-03-22 07:24:00,SystemResetWarning,0830.1,5.00,000.00,023.3,022.3,000.0,031.9,025.1,17.6,0000.0,0014.65,0003.82,0002.51
2024-03-22 07:25:00,SystemResetWarning,0830.0,5.00,000.00,023.3,022.3,000.0,031.9,025.1,17.6,0000.0,0014.62,0003.82,0002.48
2024-03-22 07:26:00,SystemResetWarning,0830.0,5.00,000.00,023.3,022.3,000.0,031.9,025.1,17.7,0000.0,0014.63,0003.79,0002.47
2024-03-22 07:27:00,SystemResetWarning,0830.0,5.00,000.00,023.3,022.3,000.0,031.9,025.1,17.7,0000.0,0013.70,0003.78,0002.45
2024-03-22 07:28:00,SystemResetWarning,0830.0,4.99,000.00,023.2,022.3,000.0,031.9,025.1,17.7,0000.0,0013.27,0003.80,0002.44
2024-03-22 07:29:00,SystemResetWarning,0830.1,5.00,000.00,023.2,022.3,000.0,031.9,025.1,17.7,0000.0,0013.05,0003.80,0002.44
2024-03-22 07:30:00,SystemResetWarning,0830.1,5.00,000.00,023.2,022.3,000.0,031.9,025.1,17.7,0000.0,0013.11,0003.79,0002.45
2024-03-22 07:31:00,SystemResetWarning,0830.1,5.00,000.00,023.2,022.2,000.0,031.9,025.1,17.7,0000.0,0013.02,0003.77,0002.45
2024-03-22 07:32:00,SystemResetWarning,0830.1,5.02,000.00,023.2,022.2,000.0,031.9,025.1,17.7,0000.0,0013.63,0003.78,0002.46
2024-03-22 07:33:00,SystemResetWarning,0830.0,5.01,000.00,023.2,022.2,000.0,031.9,025.0,17.7,0000.0,0013.82,0003.75,0002.47
2024-03-22 07:34:00,SystemResetWarning,0830.1,5.00,000.00,023.2,022.2,000.0,031.9,025.0,17.7,0000.0,0013.03,0003.73,0002.46
2024-03-22 07:35:00,SystemResetWarning,0830.2,5.00,000.00,023.2,022.2,000.0,031.9,025.0,17.7,0000.0,0014.06,0003.77,0002.48
2024-03-22 07:36:00,SystemResetWarning,0830.3,4.99,000.00,023.2,022.1,000.0,031.8,025.0,17.7,0000.0,0014.91,0003.82,0002.49
2024-03-22 07:37:00,SystemResetWarning,0830.3,5.00,000.00,023.1,022.1,000.0,031.8,025.0,17.7,0000.0,0015.15,0003.82,0002.50
2024-03-22 07:38:00,SystemResetWarning,0830.2,5.01,000.00,023.1,022.1,000.0,031.8,025.0,17.7,0000.0,0015.31,0003.83,0002.49
2024-03-22 07:39:00,SystemResetWarning,0830.1,5.01,000.00,023.1,022.1,000.0,031.8,025.0,17.7,0000.0,0015.31,0003.81,0002.50
2024-03-22 07:40:00,SystemResetWarning,0830.1,4.99,000.00,023.1,022.0,000.0,031.8,024.9,17.8,0000.0,0015.20,0003.85,0002.51
2024-03-22 07:41:00,SystemResetWarning,0830.2,4.99,000.00,023.1,022.0,000.0,031.8,024.9,17.8,0000.0,0016.49,0003.85,0002.51
2024-03-22 07:42:00,SystemResetWarning,0830.2,5.00,000.00,023.1,022.0,000.0,031.8,024.9,17.9,0000.0,0017.69,0003.93,0002.53
2024-03-22 07:43:00,SystemResetWarning,0830.3,5.00,000.00,023.0,021.9,000.0,031.8,024.9,17.9,0000.0,0017.95,0003.95,0002.53
2024-03-22 07:44:00,SystemResetWarning,0830.2,5.00,000.00,023.0,021.9,000.0,031.8,024.9,17.9,0000.0,0018.27,0003.97,0002.54
2024-03-22 07:45:00,SystemResetWarning,0830.3,5.01,000.00,023.0,021.9,000.0,031.7,024.8,18.0,0000.0,0018.90,0003.98,0002.55
2024-03-22 07:46:00,SystemResetWarning,0830.2,5.01,000.00,023.0,021.8,000.0,031.7,024.8,18.0,0000.0,0018.19,0003.96,0002.54
2024-03-22 07:47:00,SystemResetWarning,0830.3,5.00,000.00,022.9,021.8,000.0,031.7,024.8,18.0,0000.0,0018.08,0003.96,0002.56
2024-03-22 07:48:00,SystemResetWarning,0830.3,5.00,000.00,022.9,021.7,000.0,031.7,024.7,18.1,0000.0,0018.55,0003.96,0002.57
2024-03-22 07:49:00,SystemResetWarning,0830.4,5.00,000.00,022.9,021.7,000.0,031.7,024.7,18.1,0000.0,0018.10,0003.99,0002.59
2024-03-22 07:50:00,SystemResetWarning,0830.4,5.00,000.00,022.9,021.7,000.0,031.6,024.7,18.2,0000.0,0017.39,0003.96,0002.59
2024-03-22 07:51:00,SystemResetWarning,0830.4,5.00,000.00,022.8,021.7,000.0,031.6,024.7,18.2,0000.0,0017.90,0003.91,0002.59
2024-03-22 07:52:00,SystemResetWarning,0830.4,5.00,000.00,022.8,021.7,000.0,031.6,024.7,18.2,0000.0,0016.98,0003.90,0002.59
2024-03-22 07:53:00,SystemResetWarning,0830.4,5.00,000.00,022.8,021.7,000.0,031.6,024.7,18.2,0000.0,0015.89,0003.88,0002.61
2024-03-22 07:54:00,SystemResetWarning,0830.4,5.00,000.00,022.8,021.7,000.0,031.6,024.7,18.3,0000.0,0015.14,0003.93,0002.63
2024-03-22 07:55:00,SystemResetWarning,0830.3,5.00,000.00,022.8,021.7,000.0,031.6,024.6,18.3,0000.0,0014.62,0003.95,0002.65
2024-03-22 07:56:00,SystemResetWarning,0830.4,5.00,000.00,022.8,021.7,000.0,031.6,024.6,18.3,0000.0,0014.47,0003.99,0002.66
2024-03-22 07:57:00,SystemResetWarning,0830.4,5.00,000.00,022.7,021.7,000.0,031.5,024.6,18.2,0000.0,0014.64,0004.04,0002.67
2024-03-22 07:58:00,SystemResetWarning,0830.3,5.00,000.00,022.7,021.6,000.0,031.5,024.6,18.2,0000.0,0013.77,0003.99,0002.66
2024-03-22 07:59:00,SystemResetWarning,0830.4,5.00,000.00,022.7,021.6,000.0,031.5,024.6,18.2,0000.0,0013.71,0003.98,0002.68
